Simultaneous Nadir Overpasses (SNOs) Predictions

Prediction of SNOs between AQUA and METOP-C Satellite Orbit:

Table of predicted SNOs for the next 14.0 days since TLE Epoch: 7/31/2021
Index Date (AQUA) Time (AQUA) Lat,Lon (AQUA) SZA (AQUA ) Date (METOP-C) Time (METOP-C) Lat,Lon (METOP-C) SZA (METOP-C ) Distance(km) Time Diff (sec)
1 08/02/2021 15:18:23 -73.73, 124.81 123.81 08/02/2021 15:17:22 -73.72, 124.83 123.81 0.89 61
2 08/02/2021 16:07:52 73.79, -67.69 56.27 08/02/2021 16:08:01 73.79, -67.69 56.26 0.51 9
3 08/02/2021 16:57:25 -74.19, 99.06 123.29 08/02/2021 16:58:34 -74.19, 100.63 123.36 47.66 69
4 08/05/2021 10:52:37 -73.71,-168.71 123.08 08/05/2021 10:51:42 -73.71,-168.79 123.07 2.57 55
5 08/05/2021 11:42:06 73.78, -1.22 57.00 08/05/2021 11:42:21 73.78, -1.31 57.00 2.56 15
6 08/05/2021 12:31:43 -74.38, 165.05 122.34 08/05/2021 12:32:50 -74.38, 167.51 122.45 73.55 67
7 08/08/2021 06:26:53 -73.76,-102.37 122.25 08/08/2021 06:26:02 -73.74,-102.30 122.26 2.44 51
8 08/08/2021 07:16:22 73.83, 65.11 57.84 08/08/2021 07:16:41 73.81, 65.19 57.82 3.26 19
9 08/11/2021 02:01:08 -73.76, -35.93 121.44 08/11/2021 02:00:23 -73.73, -35.93 121.46 2.97 45
10 08/11/2021 02:50:36 73.78, 131.65 58.60 08/11/2021 02:51:02 73.80, 131.56 58.62 3.00 26
11 08/13/2021 21:35:22 -73.76, 30.49 120.58 08/13/2021 21:34:42 -73.76, 30.56 120.58 2.06 40
12 08/13/2021 22:24:50 73.80,-161.94 59.47 08/13/2021 22:25:21 73.83,-161.95 59.50 3.62 31



Historial Predications of SNOs between AQUA and METOP-C
